User: anonymous
Location: Unspecified
(0.0000°N, 0.0000°E)
Time: 19:08:22
(UTC+00:00)
Language:

RAX-2 - Orbit

View from above orbital plane
View from above orbital plane
View from above satellite
View from above satellite

Ground track
Ground track

The orbit data is extracted from the following two-line orbital elements,

1 37853U 11061D   14244.45057582  .00005830  00000-0  39819-3 0  8994
2 37853 101.7073 310.4985 0214608 196.0378 295.6998 14.90078386154017
Epoch (UTC): 01 September 2014 10:48:49
Eccentricity: 0.0214608
inclination: 101.7073°
perigee height: 448 km
apogee height: 747 km
right ascension of ascending node: 310.4985°
argument of perigee: 196.0378°
revolutions per day: 14.90078386
mean anomaly at epoch: 295.6998°
orbit number at epoch: 15401

The dashed part of the orbit path shows where the satellite is in the earth's shadow,  

DLR